Вернуться в каталог

SYRACUSE 4B

АктивенВоенныеGEO
NORAD 57214·PAYLOAD·🇫🇷 France

Запущен Jul 5, 2023 с Guiana Space Centre

Loading…

TLE

СвежийSource: Space-Track

Эпоха: Sep 14, 2026, 00:53 UTC

1 57214U 23093B   26257.03725449  .00000000  00000-0  00000-0 0  9992
2 57214   0.0207 171.5296 0000247  93.2254  95.2422  1.00269450  7861

Отслеживайте SYRACUSE 4B в реальном времени с AllMySat

Download on the App Store